| time (UTC) | temp F | wind direction | speed knots | gust knots | rain 1hr in | rain 24hr in | rain mn in | humidity % | barometer mb |
| 20260508072658 | 67 | 292 | 0.0 | 1.7 | 0.00 | 0.00 | 0.00 | 64 | 1014.8 |
| 20260508071654 | 67 | 0.0 | 0.9 | 0.00 | 0.00 | 0.00 | 63 | 1014.8 | |
| 20260508070612 | 68 | 0.0 | 0.0 | 0.00 | 0.00 | 0.00 | 62 | 1014.7 | |
| 20260508065608 | 67 | 292 | 0.0 | 0.9 | 0.00 | 0.00 | 0.00 | 65 | 1014.9 |
| 20260508064605 | 66 | 292 | 0.9 | 0.9 | 0.00 | 0.00 | 0.00 | 65 | 1014.5 |
| 20260508063601 | 65 | 292 | 0.0 | 0.9 | 0.00 | 0.00 | 0.00 | 69 | 1014.4 |
| 20260508062620 | 64 | 292 | 0.0 | 1.7 | 0.00 | 0.00 | 0.00 | 68 | 1014.2 |
| 20260508061557 | 62 | 292 | 0.9 | 1.7 | 0.00 | 0.00 | 0.00 | 71 | 1014.0 |
| 20260508060553 | 62 | 292 | 0.0 | 1.7 | 0.00 | 0.00 | 0.00 | 73 | 1013.9 |
| 20260508055609 | 60 | 292 | 0.9 | 1.7 | 0.00 | 0.00 | 0.00 | 74 | 1014.1 |
| 20260508054546 | 59 | 292 | 0.0 | 0.9 | 0.00 | 0.00 | 0.00 | 76 | 1013.8 |
| 20260508053542 | 57 | 292 | 0.9 | 1.7 | 0.00 | 0.00 | 0.00 | 78 | 1013.8 |
| 20260508052538 | 57 | 292 | 0.9 | 1.7 | 0.00 | 0.00 | 0.00 | 79 | 1013.8 |
| 20260508051553 | 55 | 315 | 1.7 | 2.6 | 0.00 | 0.00 | 0.00 | 81 | 1013.5 |
| 20260508050529 | 55 | 315 | 1.7 | 2.6 | 0.00 | 0.00 | 0.00 | 82 | 1013.4 |
| 20260508045526 | 54 | 315 | 0.9 | 1.7 | 0.00 | 0.00 | 0.00 | 83 | 1013.3 |
| 20260508044605 | 54 | 315 | 0.9 | 1.7 | 0.00 | 0.00 | 0.00 | 85 | 1013.4 |
| 20260508043518 | 53 | 292 | 0.9 | 1.7 | 0.00 | 0.00 | 0.00 | 86 | 1013.6 |
| 20260508042515 | 53 | 315 | 0.0 | 0.9 | 0.00 | 0.00 | 0.00 | 86 | 1013.2 |
| 20260508041511 | 53 | 0.0 | 0.0 | 0.00 | 0.00 | 0.00 | 86 | 1013.4 | |
| 20260508040510 | 53 | 0.0 | 0.9 | 0.00 | 0.00 | 0.00 | 86 | 1013.4 | |
| 20260508035527 | 53 | 0.0 | 0.9 | 0.00 | 0.00 | 0.00 | 86 | 1013.3 | |
| 20260508034504 | 53 | 315 | 1.7 | 2.6 | 0.00 | 0.00 | 0.00 | 86 | 1013.0 |
| 20260508033502 | 53 | 292 | 0.9 | 1.7 | 0.00 | 0.00 | 0.00 | 86 | 1013.2 |
| 20260508032459 | 53 | 292 | 0.0 | 0.9 | 0.00 | 0.00 | 0.00 | 85 | 1013.0 |
| 20260508031456 | 54 | 292 | 0.9 | 1.7 | 0.00 | 0.01 | 0.00 | 85 | 1013.3 |
| 20260508030513 | 54 | 292 | 0.0 | 0.9 | 0.00 | 0.01 | 0.00 | 84 | 1013.2 |
| 20260508025449 | 54 | 292 | 0.9 | 1.7 | 0.00 | 0.01 | 0.00 | 85 | 1013.0 |
| 20260508024445 | 53 | 315 | 0.9 | 1.7 | 0.00 | 0.01 | 0.00 | 85 | 1012.9 |
| 20260508023504 | 53 | 315 | 2.6 | 2.6 | 0.00 | 0.01 | 0.00 | 85 | 1013.0 |
| 20260508022438 | 54 | 315 | 1.7 | 3.5 | 0.00 | 0.01 | 0.00 | 85 | 1013.2 |
| 20260508021435 | 54 | 315 | 0.9 | 2.6 | 0.00 | 0.01 | 0.00 | 84 | 1013.2 |
| 20260508020451 | 54 | 292 | 1.7 | 2.6 | 0.00 | 0.01 | 0.00 | 84 | 1013.2 |
| 20260508015428 | 54 | 292 | 0.9 | 1.7 | 0.00 | 0.01 | 0.00 | 84 | 1013.3 |
| 20260508014444 | 54 | 292 | 1.7 | 3.5 | 0.00 | 0.01 | 0.00 | 83 | 1013.0 |
| 20260508013421 | 54 | 270 | 0.9 | 1.7 | 0.00 | 0.01 | 0.00 | 83 | 1012.9 |
| 20260508012417 | 53 | 157 | 3.5 | 8.7 | 0.00 | 0.01 | 0.00 | 84 | 1013.2 |
| 20260508011413 | 53 | 315 | 0.9 | 1.7 | 0.00 | 0.01 | 0.00 | 85 | 1012.5 |
| 20260508010430 | 53 | 315 | 0.9 | 1.7 | 0.00 | 0.01 | 0.00 | 85 | 1012.8 |
| 20260508005406 | 53 | 292 | 0.9 | 1.7 | 0.00 | 0.01 | 0.00 | 85 | 1012.9 |
| 20260508004403 | 54 | 0.0 | 0.0 | 0.00 | 0.02 | 0.00 | 85 | 1012.8 | |
| 20260508003400 | 53 | 0.0 | 0.0 | 0.00 | 0.02 | 0.00 | 85 | 1013.0 | |
| 20260508002356 | 53 | 0.0 | 0.0 | 0.00 | 0.02 | 0.00 | 85 | 1012.8 | |
| 20260508001412 | 54 | 0.0 | 0.0 | 0.00 | 0.02 | 0.00 | 84 | 1013.2 | |
| 20260508000350 | 54 | 0.0 | 0.0 | 0.00 | 0.02 | 0.00 | 84 | 1012.9 | |
| 20260507235345 | 55 | 0.0 | 0.0 | 0.00 | 0.02 | 0.00 | 84 | 1013.0 | |
| 20260507234343 | 55 | 0.0 | 0.0 | 0.00 | 0.02 | 0.00 | 84 | 1012.9 | |
| 20260507233338 | 55 | 0.0 | 0.0 | 0.00 | 0.02 | 0.00 | 83 | 1012.9 | |
| 20260507232334 | 55 | 0.0 | 0.0 | 0.00 | 0.02 | 0.00 | 82 | 1013.3 | |
| 20260507231333 | 55 | 0.0 | 0.0 | 0.00 | 0.02 | 0.00 | 81 | 1012.9 | |
| 20260507230326 | 55 | 292 | 0.0 | 0.9 | 0.00 | 0.02 | 0.00 | 81 | 1012.9 |
| 20260507225323 | 56 | 0.0 | 0.0 | 0.00 | 0.02 | 0.00 | 82 | 1012.9 | |
| 20260507224319 | 56 | 292 | 0.0 | 0.9 | 0.00 | 0.02 | 0.00 | 81 | 1013.2 |
| 20260507223316 | 56 | 292 | 0.0 | 1.7 | 0.00 | 0.02 | 0.00 | 81 | 1013.2 |
| 20260507222312 | 56 | 292 | 0.0 | 1.7 | 0.00 | 0.02 | 0.00 | 81 | 1012.9 |
| 20260507221308 | 56 | 292 | 0.9 | 1.7 | 0.00 | 0.02 | 0.00 | 81 | 1012.9 |
| 20260507220304 | 56 | 0.0 | 0.0 | 0.00 | 0.02 | 0.00 | 82 | 1013.0 | |
| 20260507215256 | 56 | 0.0 | 0.0 | 0.00 | 0.02 | 0.02 | 83 | 1013.2 | |
| 20260507214332 | 57 | 0.0 | 0.0 | 0.00 | 0.02 | 0.02 | 81 | 1012.7 | |
| 20260507213249 | 58 | 0.0 | 0.0 | 0.00 | 0.02 | 0.02 | 79 | 1012.6 | |
| 20260507212247 | 59 | 0.0 | 0.0 | 0.00 | 0.02 | 0.02 | 78 | 1012.6 | |
| 20260507211242 | 59 | 0.0 | 0.0 | 0.00 | 0.02 | 0.02 | 77 | 1012.7 | |
| 20260507210238 | 59 | 0.0 | 0.0 | 0.00 | 0.02 | 0.02 | 76 | 1012.8 | |
| 20260507205315 | 60 | 0.0 | 0.0 | 0.00 | 0.02 | 0.02 | 75 | 1012.6 | |
| 20260507204312 | 61 | 0.0 | 0.0 | 0.00 | 0.02 | 0.02 | 74 | 1012.4 | |
| 20260507203227 | 61 | 315 | 0.0 | 1.7 | 0.00 | 0.02 | 0.02 | 73 | 1012.5 |
| 20260507202223 | 60 | 0.0 | 0.0 | 0.00 | 0.02 | 0.02 | 74 | 1012.4 | |
| 20260507201217 | 60 | 0.0 | 0.0 | 0.00 | 0.02 | 0.02 | 73 | 1012.0 | |
| 20260507200213 | 61 | 0.0 | 0.0 | 0.00 | 0.02 | 0.02 | 73 | 1012.1 | |
| 20260507195210 | 61 | 0.0 | 0.0 | 0.00 | 0.02 | 0.02 | 72 | 1011.9 | |
| 20260507194206 | 61 | 0.0 | 0.0 | 0.00 | 0.02 | 0.02 | 70 | 1011.9 | |
| 20260507193157 | 62 | 0.0 | 0.0 | 0.00 | 0.02 | 0.02 | 68 | 1011.6 | |
| 20260507192213 | 63 | 0.0 | 0.0 | 0.00 | 0.02 | 0.02 | 65 | 1011.5 | |
| 20260507191149 | 64 | 0.0 | 0.0 | 0.00 | 0.02 | 0.02 | 60 | 1011.3 | |
| 20260507190147 | 64 | 0.0 | 0.0 | 0.00 | 0.02 | 0.02 | 60 | 1011.1 | |
| 20260507185143 | 65 | 0.0 | 0.0 | 0.00 | 0.02 | 0.02 | 59 | 1011.1 | |
| 20260507184141 | 65 | 0.0 | 0.0 | 0.00 | 0.02 | 0.02 | 56 | 1011.0 | |
| 20260507183135 | 65 | 0.0 | 1.7 | 0.00 | 0.02 | 0.02 | 54 | 1011.2 | |
| 20260507182132 | 66 | 0.0 | 0.0 | 0.00 | 0.14 | 0.02 | 53 | 1011.0 | |
| 20260507181129 | 67 | 0.0 | 0.9 | 0.00 | 0.14 | 0.02 | 53 | 1010.8 | |
| 20260507180126 | 67 | 0.0 | 0.0 | 0.00 | 0.14 | 0.02 | 51 | 1010.9 | |
| 20260507175122 | 68 | 315 | 0.9 | 1.7 | 0.00 | 0.14 | 0.02 | 50 | 1010.8 |
| 20260507174119 | 68 | 247 | 0.0 | 0.9 | 0.00 | 0.14 | 0.02 | 50 | 1010.7 |
| 20260507173115 | 68 | 292 | 0.0 | 0.9 | 0.00 | 0.14 | 0.02 | 50 | 1010.6 |
| 20260507172115 | 68 | 292 | 0.0 | 2.6 | 0.00 | 0.14 | 0.02 | 51 | 1010.5 |
| 20260507171110 | 69 | 292 | 0.0 | 0.9 | 0.00 | 0.14 | 0.02 | 50 | 1010.7 |
| 20260507165058 | 69 | 0.0 | 0.0 | 0.00 | 0.14 | 0.02 | 51 | 1010.5 | |
| 20260507164114 | 69 | 247 | 1.7 | 3.5 | 0.00 | 0.14 | 0.02 | 50 | 1010.4 |
| 20260507163051 | 70 | 315 | 0.9 | 1.7 | 0.00 | 0.14 | 0.02 | 50 | 1010.3 |
| 20260507162047 | 70 | 292 | 0.9 | 1.7 | 0.00 | 0.14 | 0.02 | 51 | 1010.3 |
| 20260507161043 | 69 | 292 | 2.6 | 3.5 | 0.00 | 0.14 | 0.02 | 48 | 1010.4 |
| 20260507160039 | 69 | 112 | 0.9 | 1.7 | 0.00 | 0.14 | 0.02 | 48 | 1010.4 |
| 20260507155037 | 70 | 315 | 0.0 | 1.7 | 0.00 | 0.14 | 0.02 | 48 | 1010.5 |
| 20260507154032 | 70 | 315 | 0.9 | 1.7 | 0.00 | 0.14 | 0.02 | 46 | 1010.3 |
| 20260507153028 | 69 | 67 | 0.0 | 0.9 | 0.00 | 0.14 | 0.02 | 47 | 1010.5 |
| 20260507152024 | 70 | 315 | 0.9 | 1.7 | 0.00 | 0.14 | 0.02 | 46 | 1010.6 |
| 20260507151021 | 70 | 315 | 0.9 | 1.7 | 0.00 | 0.14 | 0.02 | 46 | 1010.3 |
| 20260507150018 | 70 | 315 | 0.9 | 2.6 | 0.00 | 0.15 | 0.02 | 46 | 1010.6 |
| 20260507145014 | 70 | 292 | 0.9 | 1.7 | 0.00 | 0.15 | 0.02 | 49 | 1010.5 |
| 20260507144011 | 71 | 0.0 | 0.9 | 0.00 | 0.21 | 0.02 | 47 | 1010.6 | |
| 20260507143010 | 71 | 0.0 | 0.9 | 0.00 | 0.23 | 0.02 | 46 | 1010.5 | |
| 20260507142007 | 70 | 292 | 0.0 | 2.6 | 0.00 | 0.23 | 0.02 | 47 | 1010.8 |
| 20260507140957 | 69 | 0.0 | 0.0 | 0.00 | 0.23 | 0.02 | 49 | 1010.8 | |
| 20260507135954 | 71 | 315 | 0.0 | 0.9 | 0.00 | 0.23 | 0.02 | 49 | 1010.9 |
| 20260507134952 | 71 | 292 | 0.0 | 1.7 | 0.00 | 0.23 | 0.02 | 51 | 1010.9 |
| 20260507133946 | 71 | 315 | 2.6 | 5.2 | 0.00 | 0.23 | 0.02 | 52 | 1011.0 |
| 20260507133103 | 71 | 315 | 0.0 | 0.9 | 0.00 | 0.23 | 0.02 | 53 | 1010.8 |
| 20260507131941 | 70 | 292 | 1.7 | 2.6 | 0.00 | 0.23 | 0.02 | 52 | 1011.0 |
| 20260507130938 | 71 | 0.0 | 0.9 | 0.00 | 0.23 | 0.02 | 52 | 1011.0 | |
| 20260507125935 | 69 | 315 | 1.7 | 3.5 | 0.00 | 0.23 | 0.02 | 55 | 1011.4 |
| 20260507124932 | 70 | 135 | 2.6 | 3.5 | 0.00 | 0.23 | 0.02 | 51 | 1011.4 |
| 20260507123930 | 69 | 90 | 0.9 | 1.7 | 0.00 | 0.23 | 0.02 | 54 | 1011.4 |
| 20260507122924 | 69 | 292 | 0.9 | 1.7 | 0.00 | 0.23 | 0.02 | 55 | 1011.6 |
| 20260507121920 | 68 | 202 | 1.7 | 3.5 | 0.00 | 0.23 | 0.02 | 56 | 1011.4 |
| 20260507120937 | 68 | 292 | 0.9 | 1.7 | 0.00 | 0.23 | 0.02 | 56 | 1011.6 |
| 20260507115913 | 69 | 315 | 0.9 | 1.7 | 0.00 | 0.23 | 0.02 | 55 | 1011.3 |
| 20260507114909 | 70 | 292 | 0.9 | 1.7 | 0.00 | 0.23 | 0.02 | 56 | 1011.5 |
| 20260507113926 | 69 | 315 | 0.0 | 1.7 | 0.00 | 0.23 | 0.02 | 55 | 1011.7 |
| 20260507112857 | 68 | 292 | 1.7 | 2.6 | 0.00 | 0.23 | 0.02 | 58 | 1012.0 |
| 20260507111853 | 69 | 292 | 0.9 | 1.7 | 0.00 | 0.23 | 0.02 | 58 | 1011.8 |
| 20260507110851 | 69 | 315 | 0.9 | 1.7 | 0.00 | 0.23 | 0.02 | 59 | 1011.9 |
| 20260507105846 | 68 | 292 | 0.9 | 1.7 | 0.00 | 0.23 | 0.02 | 59 | 1012.0 |
| 20260507104904 | 68 | 292 | 0.9 | 1.7 | 0.00 | 0.23 | 0.02 | 59 | 1012.2 |
| 20260507103840 | 69 | 292 | 0.0 | 0.9 | 0.00 | 0.23 | 0.02 | 60 | 1012.2 |
| 20260507102858 | 68 | 292 | 0.0 | 1.7 | 0.00 | 0.23 | 0.02 | 60 | 1012.2 |
| 20260507101833 | 70 | 270 | 0.9 | 2.6 | 0.00 | 0.23 | 0.02 | 56 | 1012.3 |
| 20260507100829 | 68 | 270 | 0.0 | 0.9 | 0.00 | 0.23 | 0.02 | 60 | 1012.2 |
| 20260507095825 | 64 | 112 | 0.0 | 2.6 | 0.00 | 0.23 | 0.02 | 62 | 1012.3 |
| 20260507094820 | 67 | 292 | 0.9 | 1.7 | 0.00 | 0.23 | 0.02 | 61 | 1012.5 |
| 20260507093817 | 65 | 270 | 0.0 | 0.9 | 0.00 | 0.23 | 0.02 | 64 | 1012.2 |
| 20260507092814 | 65 | 292 | 0.0 | 0.9 | 0.00 | 0.23 | 0.02 | 64 | 1012.4 |
| 20260507091811 | 64 | 0.0 | 0.9 | 0.00 | 0.23 | 0.02 | 66 | 1012.1 | |
| 20260507090807 | 65 | 270 | 0.0 | 1.7 | 0.00 | 0.23 | 0.02 | 64 | 1012.4 |
| 20260507085805 | 65 | 292 | 0.9 | 1.7 | 0.00 | 0.23 | 0.02 | 66 | 1012.3 |
| 20260507084817 | 63 | 292 | 0.9 | 0.9 | 0.00 | 0.28 | 0.02 | 65 | 1012.0 |
| 20260507083813 | 63 | 315 | 0.9 | 2.6 | 0.00 | 0.31 | 0.02 | 66 | 1012.1 |
| 20260507082810 | 64 | 0.0 | 0.0 | 0.00 | 0.34 | 0.02 | 63 | 1012.1 | |
| 20260507081746 | 65 | 292 | 0.0 | 0.9 | 0.00 | 0.38 | 0.02 | 64 | 1012.3 |
| 20260507080803 | 64 | 0.0 | 0.0 | 0.00 | 0.47 | 0.02 | 66 | 1012.0 | |
| 20260507075740 | 61 | 292 | 1.7 | 1.7 | 0.00 | 0.50 | 0.02 | 71 | 1012.1 |
| 20260507074757 | 61 | 292 | 1.7 | 1.7 | 0.00 | 0.53 | 0.02 | 72 | 1011.8 |
| 20260507073754 | 59 | 0.0 | 0.9 | 0.00 | 0.54 | 0.02 | 76 | 1011.7 |